[[{"header":{"parameterUnit":"m.s-1","parameterCategory":2,"la1":30.2991,"la2":30.254,"lo1":-89.0895,"lo2":-89.0444,"dy":0.0017,"dx":0.0017,"nx":28,"ny":28,"refTime":"2024-07-05T09:00:00:Z","depth":"0","parameterNumber":2,"parameterNumberName":"U-component_of_CURRENTS"},"data":[0,0,0,0,0,0,0,0,0,0,0,0,0,0,0,0,0,0,0,0,0,0,0,0,0,0,0,0,0,0,0,0,0,0,0,0,0,0,0,0,0,0,0,0,0,0,0,0,0,0,0,0,0,0,0,0,0,0,-0.3391,-0.3391,0,-0.3346,-0.3345,-0.3344,-0.3235,-0.3233,-0.3231,-0.323,-0.3093,-0.3092,-0.309,0,0,0,0,0,0,0,0,0,0,0,0,0,-0.3417,-0.3417,-0.3391,-0.3391,-0.3391,-0.3346,-0.3345,-0.3344,-0.3236,-0.3233,-0.3231,-0.3229,-0.3094,-0.3092,-0.309,0,0,0,0,0,0,0,0,0,0,0,0,0,-0.3389,-0.3416,-0.3392,-0.3334,-0.3328,-0.3346,-0.3345,-0.3344,-0.3236,-0.3233,-0.323,-0.3227,-0.3095,-0.3092,-0.3089,-0.3133,0,0,-0.3081,-0.308,0,0,0,0,0,0,0,0,-0.3391,-0.3388,-0.3342,-0.3338,-0.3332,-0.3296,-0.3304,-0.327,-0.3237,-0.3268,-0.3229,-0.3226,-0.3157,-0.3149,-0.3144,-0.3127,-0.3121,-0.3081,-0.308,-0.3078,-0.3078,0,0,0,0,0,0,0,-0.3393,-0.339,-0.337,-0.3342,-0.3336,-0.3321,-0.3313,-0.3298,-0.3226,-0.3265,-0.3258,-0.3259,-0.3152,-0.3147,-0.314,-0.3119,-0.3081,-0.3079,-0.3077,-0.3076,-0.3124,-0.3127,0,0,0,0,0,0,-0.3406,-0.3392,-0.3372,-0.3369,-0.3358,-0.3323,-0.3314,-0.3308,-0.3228,-0.3214,-0.3261,-0.3254,-0.3153,-0.3143,-0.3135,-0.3161,-0.3078,-0.3076,-0.3074,-0.3121,-0.3125,-0.3128,0,0,0,0,0,0,-0.3407,-0.3405,-0.3374,-0.3382,-0.3377,-0.3326,-0.332,-0.3309,-0.3287,-0.3226,-0.321,-0.325,-0.315,-0.3138,-0.3127,-0.3155,-0.3075,-0.3072,-0.3118,-0.3122,-0.3126,-0.3227,0,0,0,0,0,0,-0.3408,-0.3405,-0.34,-0.3383,-0.3377,-0.3403,-0.3323,-0.331,-0.3295,-0.3284,-0.3212,-0.3197,-0.3147,-0.3132,-0.3125,-0.315,-0.307,-0.3114,-0.312,-0.3125,-0.322,-0.3235,-0.3247,0,0,0,0,0,-0.3409,-0.3431,-0.34,-0.3397,-0.3373,-0.3406,-0.3403,-0.3353,-0.3298,-0.3316,-0.3259,-0.3198,-0.316,-0.3132,-0.3123,-0.3148,-0.3112,-0.3118,-0.3125,-0.3214,-0.3232,-0.3246,0,0,0,0,0,0,-0.3438,-0.3422,-0.3387,-0.3399,-0.3406,-0.3388,-0.3398,-0.3362,-0.3332,-0.3309,-0.323,-0.3215,-0.3223,-0.3184,-0.3154,-0.3184,-0.3129,-0.3134,-0.32,-0.3216,-0.3229,-0.318,-0.3068,0,0,0,0,0,-0.3445,-0.3448,-0.3441,-0.3449,-0.3458,-0.3424,-0.3424,-0.34,-0.3376,-0.3358,-0.331,-0.3267,-0.3251,-0.3227,-0.3217,-0.3226,-0.3152,-0.3242,-0.3255,-0.3266,-0.3225,-0.3195,-0.32,-0.3149,-0.3149,-0.3149,0,0,-0.3456,-0.3448,-0.3447,-0.3455,-0.3448,-0.3468,-0.3417,-0.3437,-0.3435,-0.3351,-0.3337,-0.3318,-0.3269,-0.3284,-0.3283,-0.3244,-0.3241,-0.3274,-0.3283,-0.3234,-0.3202,-0.3206,-0.321,-0.3153,-0.3153,-0.3152,0,0,-0.3472,-0.348,-0.3474,-0.3502,-0.3508,-0.351,-0.3519,-0.3513,-0.3492,-0.3493,-0.3438,-0.3414,-0.3398,-0.3357,-0.3333,-0.341,-0.3325,-0.3443,-0.3447,-0.3421,-0.3423,-0.3424,-0.3321,-0.3312,-0.3434,-0.3434,-0.3434,0,-0.3471,-0.3468,-0.3486,-0.3503,-0.352,-0.3529,-0.3541,-0.3552,-0.3539,-0.3515,-0.35,-0.345,-0.3413,-0.339,-0.3422,-0.3429,-0.3392,-0.3387,-0.3433,-0.3433,-0.3432,-0.3326,-0.3315,-0.344,-0.3439,-0.3439,-0.3438,0,-0.3471,-0.3489,-0.3512,-0.3521,-0.3556,-0.3594,-0.3616,-0.3635,-0.3612,-0.3588,-0.3574,-0.3538,-0.3484,-0.3506,-0.3477,-0.3475,-0.3442,-0.3465,-0.3382,-0.3442,-0.3328,-0.3314,-0.3448,-0.3446,-0.3444,-0.3443,0,0,-0.3375,-0.3483,-0.3479,-0.3499,-0.3572,-0.3596,-0.3637,-0.3645,-0.3631,-0.3633,-0.3593,-0.3578,-0.3546,-0.3518,-0.3504,-0.3478,-0.3441,-0.3478,-0.3474,-0.3351,-0.3344,-0.3094,-0.3054,-0.3503,-0.3502,-0.3501,-0.3259,0,-0.3341,-0.3392,-0.345,-0.3501,-0.3528,-0.3596,-0.363,-0.3649,-0.365,-0.3639,-0.3597,-0.3575,-0.3561,-0.3546,-0.3523,-0.3494,-0.3414,-0.3499,-0.3321,-0.3312,-0.3065,-0.3033,-0.2956,-0.2716,-0.3245,-0.3242,-0.324,0,-0.3251,-0.3319,-0.3365,-0.3479,-0.3494,-0.3533,-0.3575,-0.361,-0.3623,-0.3623,-0.3596,-0.3581,-0.3542,-0.3533,-0.343,-0.3506,-0.3402,-0.3354,-0.3345,-0.3051,-0.3036,-0.2746,-0.2669,-0.2697,-0.3218,-0.322,-0.3221,0,-0.3105,-0.3228,-0.3268,-0.3314,-0.3456,-0.3472,-0.353,-0.3568,-0.3591,-0.3602,-0.3602,-0.3571,-0.3533,-0.3471,-0.3322,-0.3415,-0.3164,-0.328,-0.2918,-0.2898,-0.2752,-0.2719,-0.2648,-0.313,-0.313,-0.3131,-0.3132,0,-0.3005,-0.3025,-0.3211,-0.3238,-0.3287,-0.3395,-0.3418,-0.3472,-0.3533,-0.3538,-0.3573,-0.3517,-0.3526,-0.3384,-0.3294,-0.2999,-0.3115,-0.2856,-0.2809,-0.2782,-0.2756,-0.2706,-0.2769,-0.3122,-0.3124,-0.3126,-0.3127,0,-0.2801,-0.2924,-0.2989,-0.3167,-0.3212,-0.3234,-0.3378,-0.34,-0.3475,-0.3484,-0.3493,-0.3474,-0.3267,-0.3149,-0.2979,-0.2895,-0.2621,-0.2521,-0.2428,-0.2371,-0.2133,-0.2204,-0.1983,-0.1927,-0.2168,-0.216,-0.2154,0,-0.2692,-0.2711,-0.2914,-0.2964,-0.304,-0.3121,-0.3177,-0.3327,-0.3372,-0.3405,-0.339,-0.3208,-0.296,-0.2569,-0.2405,-0.2111,-0.2191,-0.1897,-0.2044,-0.203,-0.208,-0.2175,-0.2157,-0.1904,-0.1896,-0.1889,-0.1884,0,-0.2505,-0.2586,-0.2676,-0.2799,-0.2877,-0.2968,-0.3071,-0.3107,-0.3256,-0.3181,-0.3006,-0.2789,-0.2453,-0.207,-0.1725,-0.1608,-0.1908,-0.1746,-0.1809,-0.1876,-0.1902,-0.1856,-0.2118,-0.1825,-0.1831,-0.1835,-0.1838,-0.1841,-0.2352,-0.2386,-0.2523,-0.2616,-0.2709,-0.2765,-0.2734,-0.2801,-0.2728,-0.2557,-0.2533,-0.2037,-0.1825,-0.13,-0.1237,-0.1196,-0.1332,-0.1253,-0.1335,-0.1428,-0.1378,-0.1419,-0.103,-0.1031,-0.1032,-0.1033,-0.1034,0,-0.2156,-0.2237,-0.2331,-0.2442,-0.2452,-0.2562,-0.2616,-0.2496,-0.2252,-0.2039,-0.1707,-0.1121,-0.0876,-0.0835,-0.088,-0.0885,-0.0994,-0.0904,-0.1142,-0.1142,-0.1237,-0.1232,-0.0774,-0.0774,-0.0774,-0.0774,-0.0774,-0.0774,-0.2061,-0.2087,-0.2171,-0.215,-0.2195,-0.2095,-0.2044,-0.1823,-0.161,-0.1005,-0.0544,-0.0252,-0.0304,-0.0662,-0.0875,-0.0874,-0.0968,-0.0869,-0.0924,-0.115,-0.1196,-0.1241,-0.1253,-0.0808,-0.0808,-0.0844,-0.0845,-0.0845]},{"header":{"parameterUnit":"m.s-1","parameterCategory":2,"la1":30.2991,"la2":30.254,"lo1":-89.0895,"lo2":-89.0444,"dy":0.0017,"dx":0.0017,"nx":28,"ny":28,"refTime":"2024-07-05T09:00:00:Z","depth":"0","parameterNumber":3,"parameterNumberName":"V-component_of_CURRENTS"},"data":[0,0,0,0,0,0,0,0,0,0,0,0,0,0,0,0,0,0,0,0,0,0,0,0,0,0,0,0,0,0,0,0,0,0,0,0,0,0,0,0,0,0,0,0,0,0,0,0,0,0,0,0,0,0,0,0,0,0,-0.1143,-0.1142,0,-0.1057,-0.1056,-0.1055,-0.0954,-0.0953,-0.0952,-0.095,-0.0772,-0.0769,-0.0766,0,0,0,0,0,0,0,0,0,0,0,0,0,-0.1151,-0.1152,-0.1143,-0.1142,-0.1141,-0.1057,-0.1056,-0.1054,-0.0954,-0.0953,-0.0951,-0.095,-0.0774,-0.0769,-0.0765,0,0,0,0,0,0,0,0,0,0,0,0,0,-0.1113,-0.1152,-0.1143,-0.1083,-0.1077,-0.1057,-0.1056,-0.1054,-0.0955,-0.0953,-0.0951,-0.0949,-0.0775,-0.077,-0.0765,-0.0772,0,0,-0.0749,-0.0746,0,0,0,0,0,0,0,0,-0.1115,-0.1112,-0.1093,-0.1087,-0.108,-0.1016,-0.0993,-0.0956,-0.0955,-0.0999,-0.095,-0.0948,-0.0848,-0.0837,-0.0823,-0.0764,-0.0756,-0.0748,-0.0745,-0.0743,-0.0741,0,0,0,0,0,0,0,-0.1118,-0.1115,-0.1107,-0.1092,-0.1084,-0.1036,-0.1029,-0.0986,-0.0932,-0.0995,-0.0988,-0.0982,-0.0844,-0.0829,-0.0818,-0.0754,-0.0748,-0.0744,-0.074,-0.0738,-0.0664,-0.0665,0,0,0,0,0,0,-0.1139,-0.1119,-0.1109,-0.1104,-0.1096,-0.1038,-0.103,-0.1037,-0.0935,-0.0918,-0.0984,-0.0978,-0.0839,-0.0825,-0.0812,-0.0824,-0.0743,-0.0738,-0.0735,-0.0663,-0.0665,-0.0666,0,0,0,0,0,0,-0.114,-0.114,-0.1113,-0.111,-0.1103,-0.1041,-0.1049,-0.1036,-0.1019,-0.0928,-0.0909,-0.098,-0.0837,-0.0819,-0.0779,-0.0815,-0.0736,-0.0731,-0.0662,-0.0664,-0.0665,-0.0842,0,0,0,0,0,0,-0.1141,-0.1141,-0.1159,-0.1112,-0.1104,-0.1111,-0.1051,-0.1036,-0.102,-0.1011,-0.0919,-0.09,-0.0834,-0.0787,-0.0773,-0.0807,-0.0727,-0.066,-0.0663,-0.0665,-0.0835,-0.0849,-0.0862,0,0,0,0,0,-0.1142,-0.1177,-0.1161,-0.116,-0.113,-0.1112,-0.1104,-0.105,-0.1022,-0.1026,-0.0963,-0.0903,-0.0791,-0.0784,-0.0768,-0.0801,-0.0659,-0.0662,-0.0664,-0.0828,-0.0846,-0.0862,0,0,0,0,0,0,-0.1192,-0.1169,-0.115,-0.1178,-0.1151,-0.1096,-0.1099,-0.1065,-0.1021,-0.1011,-0.092,-0.0898,-0.0874,-0.0813,-0.0808,-0.0783,-0.0715,-0.0714,-0.0845,-0.0861,-0.0875,-0.0926,-0.0722,0,0,0,0,0,-0.1215,-0.1235,-0.1197,-0.1221,-0.1211,-0.1159,-0.1148,-0.1114,-0.1068,-0.1046,-0.0983,-0.0918,-0.0875,-0.0849,-0.0794,-0.0788,-0.0683,-0.0795,-0.0809,-0.0821,-0.0851,-0.0776,-0.0787,-0.0674,-0.0674,-0.0674,0,0,-0.1243,-0.1234,-0.1245,-0.1233,-0.1207,-0.1234,-0.1147,-0.114,-0.1164,-0.1035,-0.1041,-0.0962,-0.0882,-0.087,-0.0855,-0.0824,-0.0774,-0.0825,-0.0836,-0.0859,-0.078,-0.0791,-0.0801,-0.0676,-0.0676,-0.0676,0,0,-0.1326,-0.1299,-0.135,-0.1336,-0.1314,-0.1287,-0.1293,-0.1245,-0.1218,-0.1207,-0.1128,-0.108,-0.1005,-0.0967,-0.0936,-0.0996,-0.0848,-0.0967,-0.1086,-0.1014,-0.1023,-0.103,-0.081,-0.0796,-0.0979,-0.098,-0.098,0,-0.1362,-0.1427,-0.1361,-0.1405,-0.1413,-0.1326,-0.1385,-0.1357,-0.1303,-0.128,-0.1227,-0.1123,-0.106,-0.1055,-0.1084,-0.1032,-0.0914,-0.1034,-0.1034,-0.104,-0.1044,-0.0818,-0.08,-0.0988,-0.0987,-0.0986,-0.0986,0,-0.1485,-0.1535,-0.1559,-0.1596,-0.1587,-0.1619,-0.1571,-0.1549,-0.1497,-0.1453,-0.1405,-0.1311,-0.1247,-0.1223,-0.1181,-0.1189,-0.1061,-0.1058,-0.1,-0.1067,-0.0821,-0.08,-0.1001,-0.0998,-0.0995,-0.0993,0,0,-0.1563,-0.1642,-0.165,-0.1699,-0.1692,-0.1696,-0.172,-0.1708,-0.1698,-0.1628,-0.1607,-0.1558,-0.1473,-0.1437,-0.1359,-0.1315,-0.122,-0.1225,-0.1217,-0.1018,-0.0943,-0.0779,-0.0736,-0.1225,-0.1225,-0.1225,-0.0721,0,-0.1685,-0.184,-0.1826,-0.1943,-0.2009,-0.1925,-0.1948,-0.1904,-0.1828,-0.1773,-0.1668,-0.1617,-0.1566,-0.1522,-0.1483,-0.1282,-0.119,-0.1349,-0.0899,-0.0883,-0.0743,-0.072,-0.0687,-0.0235,-0.07,-0.0696,-0.0693,0,-0.1804,-0.1895,-0.2061,-0.2117,-0.2128,-0.217,-0.2137,-0.2139,-0.2029,-0.196,-0.1882,-0.1764,-0.1675,-0.1631,-0.1336,-0.1435,-0.1228,-0.1064,-0.104,-0.0831,-0.0686,-0.0262,-0.0177,-0.0052,-0.0659,-0.0662,-0.0664,0,-0.1904,-0.2037,-0.2186,-0.2212,-0.2267,-0.2286,-0.2281,-0.2195,-0.2158,-0.2066,-0.1983,-0.1865,-0.1715,-0.1545,-0.119,-0.127,-0.0796,-0.0847,-0.0477,-0.0453,-0.0311,-0.0279,-0.0079,-0.0663,-0.0664,-0.0665,-0.0667,0,-0.2036,-0.2133,-0.2247,-0.2322,-0.2428,-0.2394,-0.243,-0.2387,-0.2284,-0.2175,-0.2089,-0.1908,-0.1699,-0.1381,-0.1161,-0.0684,-0.0745,-0.0472,-0.0345,-0.0355,-0.0335,-0.0129,-0.0106,-0.0646,-0.065,-0.0654,-0.0657,0,-0.2117,-0.2208,-0.2363,-0.2467,-0.2492,-0.2549,-0.2527,-0.2509,-0.2404,-0.2241,-0.2204,-0.1889,-0.1448,-0.115,-0.0721,-0.0547,-0.0049,-0.0007,0.0047,0.0165,0.0515,0.0527,0.0915,0.1051,0.044,0.0447,0.0453,0,-0.2159,-0.2289,-0.2468,-0.2538,-0.2592,-0.2655,-0.2668,-0.2599,-0.2517,-0.2148,-0.2035,-0.1589,-0.1156,-0.0448,-0.0133,0.0334,0.0366,0.0624,0.0398,0.0564,0.0671,0.065,0.0731,0.0601,0.0608,0.0613,0.0617,0,-0.2246,-0.2343,-0.2461,-0.2638,-0.2706,-0.2749,-0.2723,-0.265,-0.2434,-0.2178,-0.1633,-0.1242,-0.0574,-0.0006,0.0496,0.0717,0.07,0.0745,0.0858,0.0761,0.0809,0.0993,0.0347,0.0663,0.0658,0.0655,0.0652,0.065,-0.226,-0.2375,-0.2552,-0.2697,-0.2768,-0.2737,-0.2626,-0.246,-0.2173,-0.1577,-0.1272,-0.0514,0.0086,0.0808,0.0984,0.1282,0.1182,0.1319,0.1334,0.1311,0.1351,0.0873,0.1325,0.1325,0.1324,0.1324,0.1323,0,-0.2235,-0.2405,-0.2577,-0.2709,-0.2737,-0.2772,-0.2568,-0.2282,-0.1762,-0.1227,-0.0594,0.0409,0.0949,0.1328,0.1694,0.1828,0.1778,0.1883,0.1789,0.1851,0.1403,0.1307,0.1842,0.1842,0.1842,0.1842,0.1841,0.1841,-0.2221,-0.2407,-0.2539,-0.2621,-0.2664,-0.2481,-0.2265,-0.1755,-0.1266,-0.0274,0.0434,0.0974,0.1533,0.1941,0.2199,0.2217,0.2342,0.232,0.2434,0.2005,0.1948,0.1894,0.1806,0.2436,0.2437,0.2835,0.2838,0.2841]}],[{"header":{"parameterUnit":"m.s-1","parameterCategory":2,"la1":30.2991,"la2":30.254,"lo1":-89.0895,"lo2":-89.0444,"dy":0.0017,"dx":0.0017,"nx":28,"ny":28,"refTime":"2024-07-05T09:00:00:Z","depth":"2","parameterNumber":2,"parameterNumberName":"U-component_of_CURRENTS"},"data":[0,0,0,0,0,0,0,0,0,0,0,0,0,0,0,0,0,0,0,0,0,0,0,0,0,0,0,0,0,0,0,0,0,0,0,0,0,0,0,0,0,0,0,0,0,0,0,0,0,0,0,0,0,0,0,0,0,0,-0.2524,-0.2524,0,-0.2601,-0.2603,-0.2604,-0.2684,-0.2684,-0.2685,-0.2685,-0.2838,-0.2841,-0.2845,0,0,0,0,0,0,0,0,0,0,0,0,0,-0.245,-0.2451,-0.2524,-0.2524,-0.2524,-0.2601,-0.2603,-0.2605,-0.2684,-0.2684,-0.2685,-0.2685,-0.2836,-0.2841,-0.2845,0,0,0,0,0,0,0,0,0,0,0,0,0,-0.2508,-0.2452,-0.2524,-0.2567,-0.2571,-0.26,-0.2603,-0.2605,-0.2684,-0.2684,-0.2685,-0.2685,-0.2835,-0.284,-0.2846,-0.2872,0,0,-0.2863,-0.2866,0,0,0,0,0,0,0,0,-0.2505,-0.2512,-0.2561,-0.2564,-0.2568,-0.2626,-0.2632,-0.2695,-0.2684,-0.265,-0.2685,-0.2686,-0.2768,-0.2779,-0.2804,-0.2879,-0.2885,-0.2864,-0.2867,-0.287,-0.2871,0,0,0,0,0,0,0,-0.25,-0.2509,-0.2563,-0.256,-0.2565,-0.2583,-0.2593,-0.2645,-0.2714,-0.2653,-0.2657,-0.2652,-0.2772,-0.2798,-0.2808,-0.2888,-0.2864,-0.2869,-0.2872,-0.2874,-0.284,-0.2835,0,0,0,0,0,0,-0.2473,-0.2505,-0.2561,-0.2565,-0.2527,-0.2583,-0.2594,-0.2614,-0.2712,-0.2724,-0.2651,-0.2655,-0.2788,-0.2801,-0.2814,-0.2815,-0.287,-0.2875,-0.2878,-0.2844,-0.2839,-0.2834,0,0,0,0,0,0,-0.2472,-0.2478,-0.2558,-0.2528,-0.2538,-0.2583,-0.2605,-0.2615,-0.2657,-0.2707,-0.2723,-0.2683,-0.2789,-0.2806,-0.2863,-0.2823,-0.2877,-0.2883,-0.2849,-0.2842,-0.2836,-0.284,0,0,0,0,0,0,-0.247,-0.2478,-0.2492,-0.2527,-0.2539,-0.255,-0.2604,-0.2616,-0.2648,-0.2655,-0.274,-0.2753,-0.2791,-0.2855,-0.2869,-0.2832,-0.2887,-0.2854,-0.2846,-0.2838,-0.2846,-0.2835,-0.2826,0,0,0,0,0,-0.2467,-0.246,-0.2494,-0.25,-0.2555,-0.2548,-0.2556,-0.2595,-0.2649,-0.2643,-0.2719,-0.2752,-0.2809,-0.2859,-0.2876,-0.2839,-0.2858,-0.2848,-0.2839,-0.285,-0.2837,-0.2826,0,0,0,0,0,0,-0.2436,-0.2468,-0.2505,-0.2513,-0.2523,-0.2557,-0.2553,-0.2603,-0.2663,-0.2683,-0.276,-0.2777,-0.2776,-0.2803,-0.2856,-0.2784,-0.2813,-0.2807,-0.2815,-0.2803,-0.2793,-0.2831,-0.2892,0,0,0,0,0,-0.2436,-0.2439,-0.2472,-0.2474,-0.2478,-0.2531,-0.2542,-0.257,-0.2617,-0.2646,-0.2704,-0.2737,-0.2743,-0.278,-0.2772,-0.2803,-0.2843,-0.2757,-0.2748,-0.274,-0.2769,-0.284,-0.2844,-0.2802,-0.2802,-0.2802,0,0,-0.2421,-0.2438,-0.2442,-0.2466,-0.2486,-0.2502,-0.254,-0.2542,-0.2572,-0.2653,-0.2709,-0.2708,-0.2731,-0.2725,-0.2725,-0.2763,-0.2749,-0.2728,-0.2723,-0.2757,-0.2831,-0.2837,-0.2842,-0.2795,-0.2797,-0.2798,0,0,-0.2381,-0.2411,-0.2407,-0.2421,-0.2438,-0.2466,-0.247,-0.251,-0.2539,-0.2585,-0.2616,-0.2623,-0.2659,-0.2669,-0.2681,-0.2617,-0.2672,-0.2563,-0.2598,-0.2665,-0.2673,-0.268,-0.267,-0.2677,-0.2589,-0.2589,-0.2589,0,-0.2369,-0.2388,-0.2398,-0.2407,-0.2428,-0.2456,-0.2476,-0.2499,-0.2554,-0.2593,-0.2584,-0.2627,-0.2633,-0.2668,-0.2616,-0.2605,-0.2634,-0.2665,-0.2666,-0.2674,-0.2682,-0.267,-0.2678,-0.2588,-0.2588,-0.2588,-0.2589,0,-0.2339,-0.2367,-0.2354,-0.2395,-0.2411,-0.2412,-0.245,-0.2473,-0.2513,-0.2554,-0.2573,-0.2582,-0.2624,-0.2572,-0.2591,-0.2612,-0.2605,-0.2634,-0.2729,-0.2689,-0.2674,-0.2682,-0.2587,-0.2587,-0.2588,-0.2588,0,0,-0.2286,-0.2332,-0.2332,-0.2376,-0.2415,-0.2428,-0.2462,-0.2515,-0.2585,-0.2576,-0.2678,-0.2609,-0.2627,-0.2635,-0.2629,-0.2675,-0.2703,-0.2684,-0.2688,-0.2729,-0.2813,-0.2568,-0.2553,-0.2766,-0.2768,-0.277,-0.276,0,-0.2272,-0.2295,-0.2327,-0.2374,-0.2402,-0.2456,-0.2504,-0.2557,-0.2603,-0.2694,-0.2692,-0.2751,-0.2648,-0.2689,-0.2702,-0.2732,-0.2736,-0.27,-0.2798,-0.2799,-0.2636,-0.2559,-0.2372,-0.2329,-0.2769,-0.277,-0.2772,0,-0.2244,-0.2274,-0.2308,-0.2416,-0.2436,-0.2468,-0.2583,-0.263,-0.274,-0.2793,-0.284,-0.2872,-0.2907,-0.2848,-0.2859,-0.2853,-0.2814,-0.2813,-0.2815,-0.2608,-0.2571,-0.2445,-0.2328,-0.2786,-0.2785,-0.2784,-0.2783,0,-0.2205,-0.2273,-0.2306,-0.2333,-0.2438,-0.2482,-0.2546,-0.2652,-0.272,-0.2878,-0.2951,-0.3008,-0.3024,-0.3045,-0.2913,-0.2956,-0.2912,-0.299,-0.2711,-0.2692,-0.256,-0.2522,-0.2992,-0.2992,-0.2992,-0.2992,-0.2992,0,-0.2182,-0.2214,-0.2292,-0.2311,-0.2381,-0.2476,-0.2575,-0.2653,-0.2806,-0.2877,-0.2988,-0.301,-0.3078,-0.3028,-0.2981,-0.2791,-0.2942,-0.2696,-0.2679,-0.2534,-0.2496,-0.2934,-0.2927,-0.2992,-0.2992,-0.2992,-0.2992,0,-0.212,-0.2169,-0.2214,-0.2319,-0.2353,-0.24,-0.2557,-0.2623,-0.2785,-0.2892,-0.2954,-0.3029,-0.2959,-0.2919,-0.291,-0.2798,-0.2726,-0.2601,-0.2356,-0.2308,-0.2474,-0.2467,-0.2433,-0.2424,-0.2417,-0.2411,-0.2406,0,-0.2089,-0.2098,-0.2178,-0.2188,-0.2224,-0.2322,-0.2373,-0.2569,-0.2617,-0.2828,-0.2826,-0.2856,-0.2762,-0.2604,-0.2459,-0.2331,-0.2438,-0.2068,-0.2111,-0.2431,-0.2421,-0.2425,-0.2428,-0.1928,-0.192,-0.1913,-0.1907,0,-0.2019,-0.2031,-0.2055,-0.2065,-0.2102,-0.2163,-0.2237,-0.2284,-0.2486,-0.2591,-0.2611,-0.261,-0.2445,-0.2188,-0.1969,-0.1883,-0.2108,-0.1917,-0.2361,-0.2057,-0.1943,-0.1936,-0.1959,-0.1844,-0.185,-0.1855,-0.1858,-0.1861,-0.1942,-0.1924,-0.1924,-0.1926,-0.1952,-0.193,-0.191,-0.1987,-0.205,-0.2108,-0.2247,-0.2155,-0.2124,-0.1681,-0.1541,-0.1428,-0.1611,-0.1589,-0.1618,-0.1653,-0.1555,-0.1431,-0.1214,-0.1217,-0.1219,-0.1221,-0.1222,0,-0.1837,-0.1809,-0.1786,-0.1759,-0.1698,-0.1771,-0.1753,-0.1682,-0.1633,-0.1719,-0.1733,-0.1549,-0.1348,-0.1305,-0.1035,-0.0986,-0.1073,-0.0954,-0.11,-0.1158,-0.1211,-0.11,-0.0634,-0.0633,-0.0631,-0.063,0,0,-0.1777,-0.17,-0.1673,-0.1507,-0.1476,-0.1325,-0.1263,-0.117,-0.1137,-0.1073,-0.1055,-0.119,-0.1225,-0.0932,-0.0866,-0.0698,-0.093,-0.065,-0.1113,-0.1338,-0.139,-0.1549,-0.1434,0,0,0,0,0]},{"header":{"parameterUnit":"m.s-1","parameterCategory":2,"la1":30.2991,"la2":30.254,"lo1":-89.0895,"lo2":-89.0444,"dy":0.0017,"dx":0.0017,"nx":28,"ny":28,"refTime":"2024-07-05T09:00:00:Z","depth":"2","parameterNumber":3,"parameterNumberName":"V-component_of_CURRENTS"},"data":[0,0,0,0,0,0,0,0,0,0,0,0,0,0,0,0,0,0,0,0,0,0,0,0,0,0,0,0,0,0,0,0,0,0,0,0,0,0,0,0,0,0,0,0,0,0,0,0,0,0,0,0,0,0,0,0,0,0,-0.03,-0.0299,0,-0.0187,-0.0186,-0.0184,-0.0086,-0.0086,-0.0085,-0.0085,0.0154,0.016,0.0166,0,0,0,0,0,0,0,0,0,0,0,0,0,-0.038,-0.0378,-0.03,-0.0299,-0.0298,-0.0188,-0.0185,-0.0183,-0.0087,-0.0086,-0.0085,-0.0085,0.0152,0.0159,0.0166,0,0,0,0,0,0,0,0,0,0,0,0,0,-0.0308,-0.0378,-0.03,-0.0242,-0.0236,-0.0188,-0.0185,-0.0183,-0.0087,-0.0086,-0.0085,-0.0085,0.015,0.0159,0.0167,0.0207,0,0,0.0194,0.0198,0,0,0,0,0,0,0,0,-0.0312,-0.0304,-0.0251,-0.0246,-0.0239,-0.0156,-0.0126,-0.0048,-0.0087,-0.0136,-0.0085,-0.0084,0.0057,0.0074,0.0101,0.0218,0.0228,0.0195,0.0201,0.0204,0.0207,0,0,0,0,0,0,0,-0.0317,-0.0308,-0.0249,-0.025,-0.0243,-0.0204,-0.0192,-0.0111,-0.0038,-0.0132,-0.0126,-0.0124,0.0063,0.0092,0.0108,0.0232,0.0195,0.0203,0.0208,0.0212,0.0363,0.0362,0,0,0,0,0,0,-0.0348,-0.0313,-0.0253,-0.0246,-0.0282,-0.0204,-0.0191,-0.0178,-0.0041,-0.0022,-0.0125,-0.012,0.0077,0.0097,0.0116,0.0179,0.0204,0.0213,0.0218,0.0364,0.0363,0.0361,0,0,0,0,0,0,-0.035,-0.0343,-0.0257,-0.0283,-0.027,-0.0204,-0.019,-0.0176,-0.014,-0.0039,-0.0016,-0.0104,0.0078,0.0104,0.0192,0.0189,0.0217,0.0225,0.0366,0.0364,0.0362,0.0299,0,0,0,0,0,0,-0.0352,-0.0344,-0.0346,-0.0285,-0.027,-0.0226,-0.0191,-0.0175,-0.0144,-0.0136,-0.0013,0.001,0.0081,0.0178,0.0201,0.0201,0.0232,0.0367,0.0365,0.0362,0.0303,0.0295,0.0289,0,0,0,0,0,-0.0355,-0.0355,-0.0347,-0.034,-0.0275,-0.0227,-0.0214,-0.0161,-0.0144,-0.0125,-0.0047,0.0006,0.0177,0.0186,0.0212,0.0215,0.0368,0.0365,0.0363,0.0306,0.0297,0.0289,0,0,0,0,0,0,-0.0391,-0.0344,-0.0334,-0.032,-0.0281,-0.0213,-0.0198,-0.0166,-0.0091,-0.0083,0.0016,0.0045,0.0105,0.0165,0.0171,0.0243,0.0271,0.0274,0.0219,0.0211,0.0204,0.0198,0.0239,0,0,0,0,0,-0.0406,-0.0392,-0.0344,-0.0336,-0.0319,-0.0262,-0.0239,-0.0205,-0.0137,-0.0104,-0.0023,0.0051,0.0111,0.0167,0.0225,0.0293,0.036,0.0299,0.0292,0.0286,0.0294,0.0392,0.0396,0.0352,0.0352,0.0352,0,0,-0.0423,-0.0395,-0.0389,-0.0344,-0.0309,-0.0285,-0.0243,-0.0212,-0.0188,-0.0089,-0.0025,0.0031,0.0117,0.0176,0.0208,0.0236,0.0329,0.0283,0.0277,0.0288,0.039,0.0395,0.0399,0.035,0.035,0.035,0,0,-0.0442,-0.0421,-0.0413,-0.0385,-0.0345,-0.0307,-0.0302,-0.0237,-0.0201,-0.0141,-0.0082,-0.0019,0.0085,0.015,0.0194,0.0186,0.0275,0.0184,0.0175,0.027,0.0275,0.0281,0.0361,0.0374,0.0199,0.0199,0.0199,0,-0.0467,-0.0452,-0.0405,-0.0391,-0.0379,-0.0321,-0.0315,-0.0267,-0.0182,-0.0151,-0.0132,0.0,0.0073,0.0154,0.0144,0.0176,0.0236,0.0206,0.0265,0.0272,0.0279,0.0359,0.0375,0.0196,0.0196,0.0196,0.0197,0,-0.0472,-0.047,-0.0463,-0.0428,-0.0403,-0.039,-0.0333,-0.0298,-0.0259,-0.0207,-0.0135,-0.0039,0.0048,0.0062,0.0111,0.0182,0.0209,0.0232,0.0293,0.028,0.0365,0.0382,0.0191,0.0192,0.0193,0.0194,0,0,-0.0509,-0.0477,-0.0477,-0.0488,-0.0429,-0.0418,-0.0374,-0.032,-0.0289,-0.0214,-0.015,-0.0068,-0.0015,0.0035,0.0099,0.0183,0.028,0.0227,0.0233,0.0318,0.0485,0.041,0.0423,0.0319,0.0322,0.0324,0.0521,0,-0.0534,-0.054,-0.0503,-0.0519,-0.0524,-0.0467,-0.0433,-0.0375,-0.0305,-0.0223,-0.0125,-0.0043,-0.0024,0.0026,0.0107,0.0256,0.0324,0.0224,0.0475,0.0482,0.0428,0.0441,0.0413,0.0577,0.0539,0.0542,0.0544,0,-0.0548,-0.0559,-0.0578,-0.0586,-0.058,-0.0572,-0.0521,-0.0484,-0.035,-0.0287,-0.0183,-0.0082,0.0066,0.0072,0.0308,0.0247,0.0345,0.0443,0.0453,0.0421,0.044,0.0585,0.0611,0.0574,0.0572,0.057,0.0568,0,-0.0608,-0.0617,-0.0646,-0.0646,-0.0625,-0.0626,-0.061,-0.0507,-0.0461,-0.031,-0.0213,-0.0063,0.0075,0.0208,0.0372,0.0375,0.0612,0.0658,0.0671,0.0668,0.0711,0.0705,0.0788,0.0788,0.0788,0.0787,0.0787,0,-0.0648,-0.0678,-0.0687,-0.0707,-0.0754,-0.0705,-0.0705,-0.0649,-0.0518,-0.0418,-0.0251,-0.0126,0.0121,0.0284,0.0393,0.0569,0.0631,0.0675,0.0716,0.0682,0.0671,0.0721,0.071,0.0795,0.0793,0.0791,0.079,0,-0.0699,-0.0697,-0.0753,-0.077,-0.0785,-0.0821,-0.0792,-0.0769,-0.0614,-0.0457,-0.0388,-0.0115,0.0113,0.0289,0.0544,0.0625,0.0771,0.0787,0.0707,0.0732,0.0775,0.0759,0.092,0.0919,0.0918,0.0918,0.0917,0,-0.072,-0.0748,-0.0822,-0.0871,-0.0888,-0.0927,-0.0941,-0.0847,-0.0788,-0.0459,-0.0378,-0.0091,0.0084,0.0389,0.057,0.0751,0.0735,0.0814,0.0808,0.0767,0.0792,0.0776,0.0761,0.0862,0.0861,0.086,0.0859,0,-0.077,-0.0795,-0.0848,-0.0953,-0.1009,-0.1058,-0.1052,-0.1019,-0.0826,-0.0662,-0.0399,-0.022,0.0153,0.0371,0.0578,0.0665,0.0789,0.0803,0.0834,0.0785,0.0715,0.0736,0.0725,0.0852,0.0853,0.0854,0.0854,0.0854,-0.0809,-0.0869,-0.094,-0.104,-0.1108,-0.1154,-0.117,-0.1123,-0.1034,-0.0726,-0.0534,-0.0223,0.0084,0.0391,0.0552,0.074,0.0765,0.0825,0.0829,0.0832,0.0742,0.0669,0.0784,0.0784,0.0784,0.0784,0.0785,0,-0.0855,-0.092,-0.1018,-0.1131,-0.1207,-0.1218,-0.1208,-0.1174,-0.1092,-0.0802,-0.0582,-0.0249,0.0006,0.032,0.0634,0.0793,0.081,0.0796,0.0816,0.082,0.0825,0.0735,0.0775,0.0776,0.0776,0.0777,0,0,-0.0884,-0.0978,-0.1035,-0.1183,-0.1252,-0.129,-0.1279,-0.122,-0.1044,-0.0817,-0.0568,-0.0323,0.0071,0.0264,0.0477,0.0664,0.0692,0.0658,0.0647,0.0648,0.0651,0.0819,0.0682,0,0,0,0,0]}],[{"header":{"parameterUnit":"m.s-1","parameterCategory":2,"la1":30.2991,"la2":30.254,"lo1":-89.0895,"lo2":-89.0444,"dy":0.0017,"dx":0.0017,"nx":28,"ny":28,"refTime":"2024-07-05T09:00:00:Z","depth":"4","parameterNumber":2,"parameterNumberName":"U-component_of_CURRENTS"},"data":[0,0,0,0,0,0,0,0,0,0,0,0,0,0,0,0,0,0,0,0,0,0,0,0,0,0,0,0,0,0,0,0,0,0,0,0,0,0,0,0,0,0,0,0,0,0,0,0,0,0,0,0,0,0,0,0,0,0,-0.17,-0.17,0,-0.1709,-0.1709,-0.1709,-0.1732,-0.1733,-0.1734,-0.1735,-0.1813,-0.1815,-0.1816,0,0,0,0,0,0,0,0,0,0,0,0,0,-0.1646,-0.1647,-0.17,-0.17,-0.1701,-0.1709,-0.1709,-0.1709,-0.1732,-0.1733,-0.1734,-0.1735,-0.1813,-0.1814,-0.1816,0,0,0,0,0,0,0,0,0,0,0,0,0,-0.1659,-0.1647,-0.1699,-0.1718,-0.172,-0.1709,-0.1709,-0.1708,-0.1732,-0.1733,-0.1735,-0.1736,-0.1813,-0.1814,-0.1816,-0.1796,0,0,-0.1821,-0.1822,0,0,0,0,0,0,0,0,-0.1658,-0.166,-0.1714,-0.1716,-0.1719,-0.1726,-0.1719,-0.1743,-0.1731,-0.1721,-0.1735,-0.1737,-0.1793,-0.1796,-0.1786,-0.18,-0.1803,-0.1821,-0.1822,-0.1823,-0.1824,0,0,0,0,0,0,0,-0.1657,-0.1659,-0.1698,-0.1715,-0.1718,-0.1707,-0.171,-0.1723,-0.1745,-0.1722,-0.1725,-0.1735,-0.1794,-0.1784,-0.1788,-0.1804,-0.1821,-0.1823,-0.1824,-0.1825,-0.1863,-0.1863,0,0,0,0,0,0,-0.1669,-0.1659,-0.1697,-0.1699,-0.1698,-0.1707,-0.1711,-0.1718,-0.1744,-0.175,-0.1734,-0.1736,-0.178,-0.1786,-0.1791,-0.1869,-0.1823,-0.1825,-0.1826,-0.1863,-0.1863,-0.1863,0,0,0,0,0,0,-0.1667,-0.1672,-0.1697,-0.1684,-0.1687,-0.1708,-0.1714,-0.1717,-0.1744,-0.1753,-0.176,-0.1764,-0.1782,-0.1789,-0.1813,-0.1869,-0.1826,-0.1827,-0.1863,-0.1863,-0.1863,-0.1962,0,0,0,0,0,0,-0.1666,-0.1671,-0.1688,-0.1684,-0.1688,-0.1707,-0.1714,-0.1716,-0.1748,-0.1752,-0.178,-0.1787,-0.1784,-0.181,-0.1815,-0.1871,-0.1828,-0.1863,-0.1863,-0.1863,-0.1959,-0.1966,-0.1971,0,0,0,0,0,-0.1664,-0.1674,-0.1688,-0.1694,-0.1708,-0.1708,-0.1709,-0.1724,-0.1749,-0.1755,-0.1769,-0.1788,-0.1814,-0.1812,-0.1817,-0.1875,-0.1863,-0.1863,-0.1863,-0.1956,-0.1964,-0.1971,0,0,0,0,0,0,-0.1663,-0.1678,-0.1693,-0.1711,-0.1721,-0.1715,-0.1731,-0.1744,-0.1758,-0.1775,-0.1785,-0.1791,-0.1835,-0.1824,-0.1821,-0.1878,-0.1843,-0.1844,-0.1912,-0.192,-0.1926,-0.192,-0.183,0,0,0,0,0,-0.1671,-0.1684,-0.1695,-0.1713,-0.1723,-0.1735,-0.1745,-0.1755,-0.1764,-0.1774,-0.1799,-0.1815,-0.183,-0.1851,-0.1854,-0.1887,-0.186,-0.1923,-0.1929,-0.1935,-0.1929,-0.1921,-0.1927,-0.1863,-0.1863,-0.1863,0,0,-0.1681,-0.169,-0.1701,-0.1715,-0.1727,-0.1749,-0.1744,-0.1766,-0.1797,-0.1781,-0.184,-0.1841,-0.1838,-0.1873,-0.1893,-0.1881,-0.1939,-0.1935,-0.1941,-0.1931,-0.1922,-0.1928,-0.1934,-0.1863,-0.1863,-0.1863,0,0,-0.1694,-0.1714,-0.1729,-0.1743,-0.1767,-0.1773,-0.1791,-0.1808,-0.1833,-0.1869,-0.187,-0.1895,-0.1927,-0.1932,-0.1939,-0.1976,-0.1968,-0.199,-0.2033,-0.2027,-0.2032,-0.2037,-0.2019,-0.2021,-0.2,-0.2,-0.2,0,-0.1709,-0.1729,-0.1734,-0.1755,-0.1779,-0.1795,-0.1824,-0.1845,-0.1872,-0.1892,-0.1903,-0.1942,-0.1955,-0.1989,-0.2003,-0.1999,-0.198,-0.2017,-0.2038,-0.2042,-0.2045,-0.2025,-0.2026,-0.2005,-0.2004,-0.2004,-0.2003,0,-0.1726,-0.1759,-0.1771,-0.1809,-0.1831,-0.1854,-0.1888,-0.1922,-0.1962,-0.1978,-0.2027,-0.2027,-0.2044,-0.2066,-0.2054,-0.2089,-0.2064,-0.2047,-0.2029,-0.2058,-0.2034,-0.2034,-0.2012,-0.201,-0.2009,-0.2007,0,0,-0.1711,-0.1772,-0.1781,-0.1812,-0.1863,-0.1876,-0.1941,-0.1983,-0.2019,-0.2063,-0.2101,-0.2142,-0.2135,-0.2138,-0.2133,-0.214,-0.216,-0.2111,-0.2108,-0.2109,-0.2138,-0.1979,-0.1963,-0.2154,-0.2154,-0.2154,-0.2116,0,-0.1727,-0.1775,-0.1805,-0.1869,-0.1898,-0.1942,-0.1995,-0.2039,-0.2074,-0.2111,-0.2135,-0.2161,-0.2166,-0.2173,-0.2186,-0.2155,-0.2162,-0.2171,-0.2093,-0.209,-0.1959,-0.1958,-0.2155,-0.2115,-0.2115,-0.2115,-0.2115,0,-0.1728,-0.1762,-0.1823,-0.1897,-0.1916,-0.196,-0.2031,-0.2073,-0.2125,-0.2154,-0.2186,-0.2189,-0.2213,-0.2203,-0.2195,-0.22,-0.2176,-0.2158,-0.2155,-0.1967,-0.1929,-0.2073,-0.2113,-0.2113,-0.2114,-0.2114,-0.2114,0,-0.1694,-0.1772,-0.1822,-0.1849,-0.1935,-0.1978,-0.2023,-0.2085,-0.2106,-0.2164,-0.2174,-0.2211,-0.221,-0.2204,-0.2178,-0.2185,-0.2148,-0.2148,-0.1986,-0.1975,-0.2091,-0.2086,-0.2135,-0.2135,-0.2135,-0.2136,-0.2136,0,-0.1676,-0.1721,-0.1814,-0.1839,-0.1891,-0.1963,-0.2009,-0.206,-0.2107,-0.2109,-0.2178,-0.217,-0.2209,-0.2192,-0.2177,-0.2066,-0.2147,-0.1978,-0.1948,-0.2133,-0.2133,-0.2091,-0.2087,-0.2134,-0.2134,-0.2135,-0.2135,0,-0.162,-0.1689,-0.1746,-0.1846,-0.1873,-0.1907,-0.1978,-0.1987,-0.2065,-0.2062,-0.2075,-0.213,-0.2098,-0.2115,-0.209,-0.2028,-0.1964,-0.1912,-0.2103,-0.2087,-0.18,-0.1801,-0.1711,-0.1705,-0.17,-0.1696,-0.1692,0,-0.1592,-0.1619,-0.1723,-0.1739,-0.1784,-0.184,-0.1854,-0.1945,-0.1934,-0.2011,-0.1974,-0.1993,-0.2009,-0.1851,-0.1899,-0.1839,-0.1823,-0.1788,-0.1796,-0.1772,-0.1753,-0.1763,-0.177,-0.1684,-0.1682,-0.1681,-0.168,0,-0.1524,-0.1576,-0.1612,-0.164,-0.1669,-0.1681,-0.1708,-0.1689,-0.1766,-0.1869,-0.1814,-0.1794,-0.175,-0.173,-0.1691,-0.1661,-0.1808,-0.1734,-0.1744,-0.1751,-0.1738,-0.1727,-0.174,-0.1662,-0.1664,-0.1666,-0.1667,0,-0.1464,-0.1464,-0.1504,-0.1509,-0.1531,-0.1479,-0.153,-0.1506,-0.1517,-0.1612,-0.1596,-0.1642,-0.1721,-0.1635,-0.1607,-0.155,-0.1524,-0.1483,-0.1506,-0.1526,-0.1482,-0.1439,-0.1228,0,0,0,0,0,-0.1392,-0.1361,-0.1357,-0.1339,-0.1348,-0.1353,-0.1393,-0.1444,-0.1536,-0.1441,-0.1511,-0.147,-0.1426,-0.1463,-0.1358,-0.1502,-0.152,-0.1374,-0.1484,-0.1563,-0.1583,-0.1547,0,0,0,0,0,0,-0.1336,-0.1336,-0.1307,-0.1172,-0.1128,-0.1106,-0.1128,-0.1202,-0.1156,-0.1281,-0.126,-0.1371,-0.1343,-0.1453,-0.1326,-0.1332,-0.1366,-0.1419,-0.1414,-0.1551,-0.157,-0.1586,-0.1557,0,0,0,0,0]},{"header":{"parameterUnit":"m.s-1","parameterCategory":2,"la1":30.2991,"la2":30.254,"lo1":-89.0895,"lo2":-89.0444,"dy":0.0017,"dx":0.0017,"nx":28,"ny":28,"refTime":"2024-07-05T09:00:00:Z","depth":"4","parameterNumber":3,"parameterNumberName":"V-component_of_CURRENTS"},"data":[0,0,0,0,0,0,0,0,0,0,0,0,0,0,0,0,0,0,0,0,0,0,0,0,0,0,0,0,0,0,0,0,0,0,0,0,0,0,0,0,0,0,0,0,0,0,0,0,0,0,0,0,0,0,0,0,0,0,-0.0234,-0.0234,0,-0.0194,-0.0194,-0.0193,-0.0159,-0.0159,-0.0158,-0.0158,-0.0083,-0.0081,-0.008,0,0,0,0,0,0,0,0,0,0,0,0,0,-0.0265,-0.0265,-0.0235,-0.0234,-0.0234,-0.0194,-0.0194,-0.0193,-0.0159,-0.0159,-0.0158,-0.0158,-0.0084,-0.0082,-0.008,0,0,0,0,0,0,0,0,0,0,0,0,0,-0.0241,-0.0265,-0.0235,-0.0212,-0.0209,-0.0194,-0.0194,-0.0193,-0.0159,-0.0159,-0.0158,-0.0157,-0.0084,-0.0082,-0.0079,-0.0075,0,0,-0.0072,-0.0071,0,0,0,0,0,0,0,0,-0.0243,-0.024,-0.0216,-0.0213,-0.0211,-0.0181,-0.0177,-0.0152,-0.0159,-0.0178,-0.0158,-0.0157,-0.0113,-0.0108,-0.0102,-0.0072,-0.0069,-0.0072,-0.007,-0.0069,-0.0068,0,0,0,0,0,0,0,-0.0244,-0.0242,-0.0218,-0.0215,-0.0212,-0.0198,-0.0194,-0.0172,-0.0149,-0.0176,-0.0174,-0.017,-0.0111,-0.0105,-0.01,-0.0068,-0.0072,-0.007,-0.0068,-0.0067,-0.0005,-0.0005,0,0,0,0,0,0,-0.0251,-0.0243,-0.022,-0.0217,-0.0226,-0.0198,-0.0193,-0.0191,-0.0149,-0.0143,-0.017,-0.0168,-0.0109,-0.0103,-0.0097,-0.0048,-0.0069,-0.0067,-0.0065,-0.0005,-0.0005,-0.0005,0,0,0,0,0,0,-0.0252,-0.0249,-0.0221,-0.0229,-0.0225,-0.0198,-0.0195,-0.0191,-0.0181,-0.0145,-0.0138,-0.0166,-0.0109,-0.0101,-0.0085,-0.0046,-0.0066,-0.0063,-0.0005,-0.0005,-0.0005,0.0024,0,0,0,0,0,0,-0.0253,-0.025,-0.0256,-0.023,-0.0224,-0.0209,-0.0196,-0.019,-0.018,-0.0177,-0.0139,-0.0132,-0.0108,-0.0089,-0.0083,-0.0043,-0.0062,-0.0005,-0.0005,-0.0005,0.0023,0.0025,0.0027,0,0,0,0,0,-0.0254,-0.026,-0.0257,-0.0254,-0.0232,-0.0209,-0.0205,-0.0184,-0.018,-0.0175,-0.0159,-0.0133,-0.0081,-0.0088,-0.008,-0.0039,-0.0006,-0.0005,-0.0005,0.0022,0.0025,0.0027,0,0,0,0,0,0,-0.0279,-0.0256,-0.0252,-0.0252,-0.0233,-0.0204,-0.0201,-0.0188,-0.0172,-0.0174,-0.0139,-0.0131,-0.0098,-0.0086,-0.0094,-0.0023,-0.0035,-0.0033,-0.0017,-0.0014,-0.0012,-0.0021,-0.0059,0,0,0,0,0,-0.0289,-0.0287,-0.0261,-0.0263,-0.0254,-0.0231,-0.0222,-0.0209,-0.0189,-0.0181,-0.0152,-0.0125,-0.0091,-0.007,-0.0047,-0.0016,-0.0007,0.0016,0.0018,0.002,0.0017,0.0076,0.0084,-0.0003,-0.0003,-0.0003,0,0,-0.0303,-0.0289,-0.029,-0.0269,-0.0255,-0.0238,-0.0224,-0.0213,-0.0193,-0.0176,-0.0146,-0.0121,-0.0086,-0.0046,-0.0028,-0.0028,0.0042,0.0021,0.0023,0.0018,0.0077,0.0086,0.0094,-0.0003,-0.0003,-0.0003,0,0,-0.0317,-0.0314,-0.0311,-0.0295,-0.0274,-0.0254,-0.0251,-0.0221,-0.0201,-0.018,-0.0151,-0.0109,-0.0073,-0.0022,0.0004,0.0028,0.0046,0.0036,0.0054,0.0112,0.012,0.0128,0.012,0.0126,0.0046,0.0046,0.0046,0,-0.0337,-0.0329,-0.0308,-0.0296,-0.0288,-0.026,-0.0254,-0.0224,-0.0192,-0.0174,-0.0171,-0.0093,-0.0054,0.0017,0.0032,0.004,0.0043,0.0047,0.0118,0.0125,0.0132,0.0122,0.0129,0.0047,0.0047,0.0047,0.0047,0,-0.0337,-0.0337,-0.0334,-0.0309,-0.0294,-0.0289,-0.0247,-0.0227,-0.0206,-0.0172,-0.0115,-0.0063,-0.0015,0.002,0.0036,0.0114,0.0087,0.011,0.0115,0.0143,0.013,0.0137,0.0049,0.0049,0.0048,0.0048,0,0,-0.037,-0.0343,-0.0344,-0.0352,-0.0307,-0.0307,-0.0262,-0.0222,-0.0207,-0.0147,-0.0114,-0.002,0.0006,0.0036,0.0081,0.0145,0.0202,0.0147,0.0149,0.0144,0.0278,0.026,0.0265,0.0242,0.0244,0.0245,0.0237,0,-0.0382,-0.0382,-0.0353,-0.0361,-0.0363,-0.0324,-0.0293,-0.0252,-0.0208,-0.0168,-0.0079,-0.0037,0.0016,0.0035,0.0115,0.0174,0.0225,0.0198,0.0245,0.0245,0.0234,0.0276,0.0252,0.0242,0.0244,0.0245,0.0246,0,-0.0388,-0.0394,-0.0403,-0.0409,-0.0406,-0.0401,-0.0372,-0.0341,-0.0255,-0.022,-0.0139,-0.0084,0.002,0.0053,0.019,0.0165,0.0219,0.027,0.0272,0.0252,0.0243,0.0215,0.0258,0.0257,0.0256,0.0255,0.0255,0,-0.0433,-0.0435,-0.0456,-0.0454,-0.0438,-0.0442,-0.0432,-0.0363,-0.0345,-0.0258,-0.0238,-0.0108,-0.0064,0.0053,0.0163,0.0175,0.0288,0.0319,0.0349,0.0345,0.0349,0.0341,0.0415,0.0415,0.0415,0.0415,0.0415,0,-0.0454,-0.0479,-0.0492,-0.0507,-0.0553,-0.0511,-0.0528,-0.0491,-0.0428,-0.0411,-0.028,-0.0241,-0.0058,0.0032,0.014,0.0252,0.0272,0.0352,0.0361,0.0353,0.0347,0.0351,0.0344,0.0415,0.0415,0.0415,0.0415,0,-0.0492,-0.0492,-0.054,-0.0559,-0.0577,-0.0614,-0.0621,-0.0621,-0.0547,-0.0521,-0.0498,-0.0349,-0.0216,-0.0055,0.0115,0.0201,0.0321,0.0351,0.0279,0.0283,0.0335,0.0329,0.0389,0.0389,0.0389,0.0388,0.0388,0,-0.0506,-0.0529,-0.0604,-0.0655,-0.0673,-0.0718,-0.0743,-0.0695,-0.0682,-0.0589,-0.058,-0.0445,-0.0332,-0.0119,0.0061,0.0257,0.0298,0.0328,0.0397,0.0339,0.0342,0.0336,0.033,0.0388,0.0388,0.0388,0.0388,0,-0.0543,-0.0576,-0.0624,-0.0729,-0.0792,-0.0848,-0.0872,-0.0873,-0.0802,-0.0748,-0.0638,-0.0489,-0.0342,-0.0133,0.0015,0.0163,0.0303,0.0327,0.0329,0.0395,0.0338,0.034,0.0335,0.0387,0.0387,0.0387,0.0387,0,-0.0582,-0.0637,-0.0708,-0.0799,-0.0883,-0.0939,-0.0951,-0.0921,-0.0895,-0.0765,-0.0746,-0.0544,-0.042,-0.0185,-0.005,0.0102,0.016,0.0204,0.0214,0.0217,0.0193,0.0097,0.0085,0,0,0,0,0,-0.0613,-0.0676,-0.0769,-0.087,-0.0949,-0.0988,-0.1013,-0.0997,-0.0936,-0.0871,-0.0793,-0.0643,-0.0384,-0.0265,-0.0114,-0.0056,0.0169,0.0123,0.0219,0.0383,0.0384,0.0388,0,0,0,0,0,0,-0.0639,-0.0726,-0.0775,-0.0895,-0.0966,-0.1045,-0.1058,-0.1026,-0.0962,-0.0879,-0.0736,-0.0627,-0.0374,-0.0472,-0.0119,-0.0069,0.0007,0.0259,0.0261,0.0382,0.0383,0.0384,0.0389,0,0,0,0,0]}]]